Year,Month,Day,Hour,Minute,Value (Times are PST for temperature in C)
2007,08,04,00,00,17.20
2007,08,04,00,01,17.20
2007,08,04,00,02,17.20
2007,08,04,00,03,17.20
2007,08,04,00,04,17.20
2007,08,04,00,05,17.20
2007,08,04,00,06,17.20
2007,08,04,00,07,17.20
2007,08,04,00,08,17.30
2007,08,04,00,09,17.30
2007,08,04,00,10,17.30
2007,08,04,00,11,17.30
2007,08,04,00,12,17.30
2007,08,04,00,13,17.30
2007,08,04,00,14,17.30
2007,08,04,00,15,17.30
2007,08,04,00,16,17.20
2007,08,04,00,17,17.20
2007,08,04,00,18,17.30
2007,08,04,00,19,17.30
2007,08,04,00,20,17.30
2007,08,04,00,21,17.30
2007,08,04,00,22,17.30
2007,08,04,00,23,17.30
2007,08,04,00,24,17.30
2007,08,04,00,25,17.30
2007,08,04,00,26,17.30
2007,08,04,00,27,17.30
2007,08,04,00,28,17.30
2007,08,04,00,29,17.30
2007,08,04,00,30,17.30
2007,08,04,00,31,17.30
2007,08,04,00,32,17.20
2007,08,04,00,33,17.20
2007,08,04,00,34,17.20
2007,08,04,00,35,17.20
2007,08,04,00,36,17.20
2007,08,04,00,37,17.20
2007,08,04,00,38,17.20
2007,08,04,00,39,17.20
2007,08,04,00,40,17.30
2007,08,04,00,41,17.30
2007,08,04,00,42,17.30
2007,08,04,00,43,17.30
2007,08,04,00,44,17.30
2007,08,04,00,45,17.30
2007,08,04,00,46,17.30
2007,08,04,00,47,17.30
2007,08,04,00,48,17.30
2007,08,04,00,49,17.30
2007,08,04,00,50,17.30
2007,08,04,00,51,17.30
2007,08,04,00,52,17.30
2007,08,04,00,53,17.30
2007,08,04,00,54,17.30
2007,08,04,00,55,17.30
2007,08,04,00,56,17.30
2007,08,04,00,57,17.30
2007,08,04,00,58,17.30
2007,08,04,00,59,17.30
2007,08,04,01,00,17.30
2007,08,04,01,01,17.30
2007,08,04,01,02,17.30
2007,08,04,01,03,17.30
2007,08,04,01,04,17.30
2007,08,04,01,05,17.30
2007,08,04,01,06,17.30
2007,08,04,01,07,17.30
2007,08,04,01,08,17.30
2007,08,04,01,09,17.20
2007,08,04,01,10,17.20
2007,08,04,01,11,17.20
2007,08,04,01,12,17.20
2007,08,04,01,13,17.10
2007,08,04,01,14,17.10
2007,08,04,01,15,17.10
2007,08,04,01,16,17.20
2007,08,04,01,17,17.10
2007,08,04,01,18,17.10
2007,08,04,01,19,17.10
2007,08,04,01,20,17.10
2007,08,04,01,21,17.10
2007,08,04,01,22,17.10
2007,08,04,01,23,17.00
2007,08,04,01,24,17.00
2007,08,04,01,25,17.00
2007,08,04,01,26,17.00
2007,08,04,01,27,16.90
2007,08,04,01,28,16.90
2007,08,04,01,29,16.90
2007,08,04,01,30,16.90
2007,08,04,01,31,16.90
2007,08,04,01,32,16.90
2007,08,04,01,33,16.80
2007,08,04,01,34,16.80
2007,08,04,01,35,16.80
2007,08,04,01,36,16.70
2007,08,04,01,37,16.70
2007,08,04,01,38,16.70
2007,08,04,01,39,16.70
2007,08,04,01,40,16.70
2007,08,04,01,41,16.70
2007,08,04,01,42,16.70
2007,08,04,01,43,16.70
2007,08,04,01,44,16.60
2007,08,04,01,45,16.60
2007,08,04,01,46,16.60
2007,08,04,01,47,16.50
2007,08,04,01,48,16.40
2007,08,04,01,49,16.40
2007,08,04,01,50,16.40
2007,08,04,01,51,16.40
2007,08,04,01,52,16.40
2007,08,04,01,53,16.40
2007,08,04,01,54,16.40
2007,08,04,01,55,16.40
2007,08,04,01,56,16.40
2007,08,04,01,57,16.40
2007,08,04,01,58,16.40
2007,08,04,01,59,16.30
2007,08,04,02,00,16.30
2007,08,04,02,01,16.30
2007,08,04,02,02,16.20
2007,08,04,02,03,16.20
2007,08,04,02,04,16.20
2007,08,04,02,05,16.10
2007,08,04,02,06,16.10
2007,08,04,02,07,16.10
2007,08,04,02,08,16.10
2007,08,04,02,09,16.10
2007,08,04,02,10,16.00
2007,08,04,02,11,15.90
2007,08,04,02,12,15.90
2007,08,04,02,13,15.90
2007,08,04,02,14,15.90
2007,08,04,02,15,15.80
2007,08,04,02,16,15.80
2007,08,04,02,17,15.80
2007,08,04,02,18,15.80
2007,08,04,02,19,15.80
2007,08,04,02,20,15.70
2007,08,04,02,21,15.70
2007,08,04,02,22,15.60
2007,08,04,02,23,15.60
2007,08,04,02,24,15.50
2007,08,04,02,25,15.50
2007,08,04,02,26,15.40
2007,08,04,02,27,15.30
2007,08,04,02,28,15.30
2007,08,04,02,29,15.30
2007,08,04,02,30,15.20
2007,08,04,02,31,15.10
2007,08,04,02,32,15.10
2007,08,04,02,33,15.10
2007,08,04,02,34,15.10
2007,08,04,02,35,15.10
2007,08,04,02,36,15.10
2007,08,04,02,37,15.10
2007,08,04,02,38,15.10
2007,08,04,02,39,15.10
2007,08,04,02,40,15.10
2007,08,04,02,41,15.00
2007,08,04,02,42,15.00
2007,08,04,02,43,15.00
2007,08,04,02,44,14.90
2007,08,04,02,45,14.90
2007,08,04,02,46,14.90
2007,08,04,02,47,14.90
2007,08,04,02,48,14.90
2007,08,04,02,49,14.90
2007,08,04,02,50,14.90
2007,08,04,02,51,14.80
2007,08,04,02,52,14.80
2007,08,04,02,53,14.70
2007,08,04,02,54,14.70
2007,08,04,02,55,14.60
2007,08,04,02,56,14.60
2007,08,04,02,57,14.50
2007,08,04,02,58,14.50
2007,08,04,02,59,14.40
2007,08,04,03,00,14.40
2007,08,04,03,01,14.30
2007,08,04,03,02,14.30
2007,08,04,03,03,14.20
2007,08,04,03,04,14.20
2007,08,04,03,05,14.20
2007,08,04,03,06,14.10
2007,08,04,03,07,14.10
2007,08,04,03,08,14.00
2007,08,04,03,09,13.90
2007,08,04,03,10,13.90
2007,08,04,03,11,13.80
2007,08,04,03,12,13.80
2007,08,04,03,13,13.80
2007,08,04,03,14,13.80
2007,08,04,03,15,13.80
2007,08,04,03,16,13.70
2007,08,04,03,17,13.70
2007,08,04,03,18,13.70
2007,08,04,03,19,13.70
2007,08,04,03,20,13.70
2007,08,04,03,21,13.70
2007,08,04,03,22,13.70
2007,08,04,03,23,13.70
2007,08,04,03,24,13.70
2007,08,04,03,25,13.70
2007,08,04,03,26,13.70
2007,08,04,03,27,13.80
2007,08,04,03,28,13.90
2007,08,04,03,29,13.90
2007,08,04,03,30,14.00
2007,08,04,03,31,14.10
2007,08,04,03,32,14.10
2007,08,04,03,33,14.20
2007,08,04,03,34,14.20
2007,08,04,03,35,14.20
2007,08,04,03,36,14.20
2007,08,04,03,37,14.20
2007,08,04,03,38,14.20
2007,08,04,03,39,14.20
2007,08,04,03,40,14.30
2007,08,04,03,41,14.30
2007,08,04,03,42,14.30
2007,08,04,03,43,14.40
2007,08,04,03,44,14.40
2007,08,04,03,45,14.40
2007,08,04,03,46,14.40
2007,08,04,03,47,14.40
2007,08,04,03,48,14.40
2007,08,04,03,49,14.40
2007,08,04,03,50,14.40
2007,08,04,03,51,14.40
2007,08,04,03,52,14.40
2007,08,04,03,53,14.40
2007,08,04,03,54,14.30
2007,08,04,03,55,14.30
2007,08,04,03,56,14.20
2007,08,04,03,57,14.20
2007,08,04,03,58,14.20
2007,08,04,03,59,14.20
2007,08,04,04,00,14.10
2007,08,04,04,01,14.10
2007,08,04,04,02,14.10
2007,08,04,04,03,14.10
2007,08,04,04,04,14.10
2007,08,04,04,05,14.10
2007,08,04,04,06,14.10
2007,08,04,04,07,14.20
2007,08,04,04,08,14.20
2007,08,04,04,09,14.20
2007,08,04,04,10,14.30
2007,08,04,04,11,14.40
2007,08,04,04,12,14.50
2007,08,04,04,13,14.50
2007,08,04,04,14,14.60
2007,08,04,04,15,14.60
2007,08,04,04,16,14.70
2007,08,04,04,17,14.70
2007,08,04,04,18,14.70
2007,08,04,04,19,14.80
2007,08,04,04,20,14.80
2007,08,04,04,21,14.80
2007,08,04,04,22,14.80
2007,08,04,04,23,14.90
2007,08,04,04,24,14.90
2007,08,04,04,25,14.90
2007,08,04,04,26,14.90
2007,08,04,04,27,14.90
2007,08,04,04,28,15.00
2007,08,04,04,29,15.00
2007,08,04,04,30,15.00
2007,08,04,04,31,15.00
2007,08,04,04,32,15.00
2007,08,04,04,33,15.10
2007,08,04,04,34,15.10
2007,08,04,04,35,15.10
2007,08,04,04,36,15.10
2007,08,04,04,37,15.20
2007,08,04,04,38,15.20
2007,08,04,04,39,15.20
2007,08,04,04,40,15.20
2007,08,04,04,41,15.20
2007,08,04,04,42,15.30
2007,08,04,04,43,15.30
2007,08,04,04,44,15.30
2007,08,04,04,45,15.30
2007,08,04,04,46,15.30
2007,08,04,04,47,15.30
2007,08,04,04,48,15.30
2007,08,04,04,49,15.30
2007,08,04,04,50,15.30
2007,08,04,04,51,15.40
2007,08,04,04,52,15.40
2007,08,04,04,53,15.40
2007,08,04,04,54,15.40
2007,08,04,04,55,15.40
2007,08,04,04,56,15.40
2007,08,04,04,57,15.40
2007,08,04,04,58,15.40
2007,08,04,04,59,15.40
2007,08,04,05,00,15.40
2007,08,04,05,01,15.40
2007,08,04,05,02,15.40
2007,08,04,05,03,15.40
2007,08,04,05,04,15.40
2007,08,04,05,05,15.40
2007,08,04,05,06,15.40
2007,08,04,05,07,15.40
2007,08,04,05,08,15.40
2007,08,04,05,09,15.40
2007,08,04,05,10,15.30
2007,08,04,05,11,15.30
2007,08,04,05,12,15.30
2007,08,04,05,13,15.30
2007,08,04,05,14,15.30
2007,08,04,05,15,15.30
2007,08,04,05,16,15.30
2007,08,04,05,17,15.30
2007,08,04,05,18,15.30
2007,08,04,05,19,15.30
2007,08,04,05,20,15.20
2007,08,04,05,21,15.20
2007,08,04,05,22,15.20
2007,08,04,05,23,15.20
2007,08,04,05,24,15.20
2007,08,04,05,25,15.20
2007,08,04,05,26,15.20
2007,08,04,05,27,15.20
2007,08,04,05,28,15.20
2007,08,04,05,29,15.20
2007,08,04,05,30,15.20
2007,08,04,05,31,15.20
2007,08,04,05,32,15.20
2007,08,04,05,33,15.20
2007,08,04,05,34,15.20
2007,08,04,05,35,15.20
2007,08,04,05,36,15.20
2007,08,04,05,37,15.20
2007,08,04,05,38,15.20
2007,08,04,05,39,15.20
2007,08,04,05,40,15.20
2007,08,04,05,41,15.20
2007,08,04,05,42,15.20
2007,08,04,05,43,15.20
2007,08,04,05,44,15.20
2007,08,04,05,45,15.20
2007,08,04,05,46,15.20
2007,08,04,05,47,15.20
2007,08,04,05,48,15.20
2007,08,04,05,49,15.20
2007,08,04,05,50,15.20
2007,08,04,05,51,15.20
2007,08,04,05,52,15.20
2007,08,04,05,53,15.20
2007,08,04,05,54,15.20
2007,08,04,05,55,15.20
2007,08,04,05,56,15.20
2007,08,04,05,57,15.20
2007,08,04,05,58,15.20
2007,08,04,05,59,15.20
2007,08,04,06,00,15.20
2007,08,04,06,01,15.20
2007,08,04,06,02,15.20
2007,08,04,06,03,15.20
2007,08,04,06,04,15.20
2007,08,04,06,05,15.20
2007,08,04,06,06,15.20
2007,08,04,06,07,15.10
2007,08,04,06,08,15.10
2007,08,04,06,09,15.10
2007,08,04,06,10,15.10
2007,08,04,06,11,15.10
2007,08,04,06,12,15.10
2007,08,04,06,13,15.10
2007,08,04,06,14,15.10
2007,08,04,06,15,15.10
2007,08,04,06,16,15.10
2007,08,04,06,17,15.10
2007,08,04,06,18,15.10
2007,08,04,06,19,15.10
2007,08,04,06,20,15.10
2007,08,04,06,21,15.10
2007,08,04,06,22,15.20
2007,08,04,06,23,15.20
2007,08,04,06,24,15.20
2007,08,04,06,25,15.20
2007,08,04,06,26,15.20
2007,08,04,06,27,15.20
2007,08,04,06,28,15.20
2007,08,04,06,29,15.30
2007,08,04,06,30,15.30
2007,08,04,06,31,15.30
2007,08,04,06,32,15.30
2007,08,04,06,33,15.30
2007,08,04,06,34,15.30
2007,08,04,06,35,15.30
2007,08,04,06,36,15.30
2007,08,04,06,37,15.30
2007,08,04,06,38,15.30
2007,08,04,06,39,15.30
2007,08,04,06,40,15.30
2007,08,04,06,41,15.30
2007,08,04,06,42,15.30
2007,08,04,06,43,15.30
2007,08,04,06,44,15.30
2007,08,04,06,45,15.30
2007,08,04,06,46,15.30
2007,08,04,06,47,15.30
2007,08,04,06,48,15.30
2007,08,04,06,49,15.30
2007,08,04,06,50,15.30
2007,08,04,06,51,15.30
2007,08,04,06,52,15.30
2007,08,04,06,53,15.30
2007,08,04,06,54,15.30
2007,08,04,06,55,15.30
2007,08,04,06,56,15.30
2007,08,04,06,57,15.40
2007,08,04,06,58,15.40
2007,08,04,06,59,15.40
2007,08,04,07,00,15.40
2007,08,04,07,01,15.40
2007,08,04,07,02,15.40
2007,08,04,07,03,15.50
2007,08,04,07,04,15.50
2007,08,04,07,05,15.50
2007,08,04,07,06,15.50
2007,08,04,07,07,15.50
2007,08,04,07,08,15.50
2007,08,04,07,09,15.50
2007,08,04,07,10,15.60
2007,08,04,07,11,15.60
2007,08,04,07,12,15.60
2007,08,04,07,13,15.60
2007,08,04,07,14,15.60
2007,08,04,07,15,15.70
2007,08,04,07,16,15.70
2007,08,04,07,17,15.70
2007,08,04,07,18,15.70
2007,08,04,07,19,15.80
2007,08,04,07,20,15.80
2007,08,04,07,21,15.80
2007,08,04,07,22,15.80
2007,08,04,07,23,15.80
2007,08,04,07,24,15.80
2007,08,04,07,25,15.80
2007,08,04,07,26,15.80
2007,08,04,07,27,15.80
2007,08,04,07,28,15.80
2007,08,04,07,29,15.80
2007,08,04,07,30,15.80
2007,08,04,07,31,15.80
2007,08,04,07,32,15.80
2007,08,04,07,33,15.90
2007,08,04,07,34,15.80
2007,08,04,07,35,15.80
2007,08,04,07,36,15.80
2007,08,04,07,37,15.80
2007,08,04,07,38,15.80
2007,08,04,07,39,15.80
2007,08,04,07,40,15.80
2007,08,04,07,41,15.90
2007,08,04,07,42,15.90
2007,08,04,07,43,15.90
2007,08,04,07,44,15.90
2007,08,04,07,45,15.90
2007,08,04,07,46,15.90
2007,08,04,07,47,16.10
2007,08,04,07,48,16.10
2007,08,04,07,49,16.10
2007,08,04,07,50,16.10
2007,08,04,07,51,16.10
2007,08,04,07,52,16.10
2007,08,04,07,53,16.10
2007,08,04,07,54,16.10
2007,08,04,07,55,16.10
2007,08,04,07,56,16.10
2007,08,04,07,57,16.10
2007,08,04,07,58,16.10
2007,08,04,07,59,16.10
2007,08,04,08,00,16.10
2007,08,04,08,01,16.10
2007,08,04,08,02,16.10
2007,08,04,08,03,16.10
2007,08,04,08,04,16.10
2007,08,04,08,05,16.10
2007,08,04,08,06,16.10
2007,08,04,08,07,16.10
2007,08,04,08,08,16.20
2007,08,04,08,09,16.20
2007,08,04,08,10,16.20
2007,08,04,08,11,16.30
2007,08,04,08,12,16.30
2007,08,04,08,13,16.30
2007,08,04,08,14,16.30
2007,08,04,08,15,16.40
2007,08,04,08,16,16.40
2007,08,04,08,17,16.40
2007,08,04,08,18,16.40
2007,08,04,08,19,16.40
2007,08,04,08,20,16.40
2007,08,04,08,21,16.40
2007,08,04,08,22,16.40
2007,08,04,08,23,16.40
2007,08,04,08,24,16.60
2007,08,04,08,25,16.60
2007,08,04,08,26,16.60
2007,08,04,08,27,16.70
2007,08,04,08,28,16.70
2007,08,04,08,29,16.70
2007,08,04,08,30,16.70
2007,08,04,08,31,16.70
2007,08,04,08,32,16.70
2007,08,04,08,33,16.70
2007,08,04,08,34,16.80
2007,08,04,08,35,16.80
2007,08,04,08,36,16.90
2007,08,04,08,37,16.90
2007,08,04,08,38,17.00
2007,08,04,08,39,17.00
2007,08,04,08,40,17.00
2007,08,04,08,41,17.00
2007,08,04,08,42,17.00
2007,08,04,08,43,17.00
2007,08,04,08,44,17.00
2007,08,04,08,45,17.00
2007,08,04,08,46,17.00
2007,08,04,08,47,16.90
2007,08,04,08,48,16.90
2007,08,04,08,49,16.90
2007,08,04,08,50,16.90
2007,08,04,08,51,16.90
2007,08,04,08,52,16.90
2007,08,04,08,53,16.90
2007,08,04,08,54,16.90
2007,08,04,08,55,17.00
2007,08,04,08,56,17.00
2007,08,04,08,57,17.00
2007,08,04,08,58,17.10
2007,08,04,08,59,17.10
2007,08,04,09,00,17.00
2007,08,04,09,01,17.00
2007,08,04,09,02,17.00
2007,08,04,09,03,17.00
2007,08,04,09,04,17.00
2007,08,04,09,05,17.00
2007,08,04,09,06,17.10
2007,08,04,09,07,17.10
2007,08,04,09,08,17.20
2007,08,04,09,09,17.20
2007,08,04,09,10,17.20
2007,08,04,09,11,17.20
2007,08,04,09,12,17.20
2007,08,04,09,13,17.20
2007,08,04,09,14,17.20
2007,08,04,09,15,17.20
2007,08,04,09,16,17.30
2007,08,04,09,17,17.30
2007,08,04,09,18,17.30
2007,08,04,09,19,17.30
2007,08,04,09,20,17.30
2007,08,04,09,21,17.40
2007,08,04,09,22,17.50
2007,08,04,09,23,17.50
2007,08,04,09,24,17.60
2007,08,04,09,25,17.60
2007,08,04,09,26,17.60
2007,08,04,09,27,17.50
2007,08,04,09,28,17.40
2007,08,04,09,29,17.40
2007,08,04,09,30,17.40
2007,08,04,09,31,17.40
2007,08,04,09,32,17.50
2007,08,04,09,33,17.50
2007,08,04,09,34,17.40
2007,08,04,09,35,17.40
2007,08,04,09,36,17.40
2007,08,04,09,37,17.30
2007,08,04,09,38,17.30
2007,08,04,09,39,17.30
2007,08,04,09,40,17.30
2007,08,04,09,41,17.40
2007,08,04,09,42,17.50
2007,08,04,09,43,17.60
2007,08,04,09,44,17.60
2007,08,04,09,45,17.70
2007,08,04,09,46,17.70
2007,08,04,09,47,17.70
2007,08,04,09,48,17.80
2007,08,04,09,49,17.80
2007,08,04,09,50,17.80
2007,08,04,09,51,17.80
2007,08,04,09,52,17.80
2007,08,04,09,53,17.80
2007,08,04,09,54,17.80
2007,08,04,09,55,17.80
2007,08,04,09,56,17.80
2007,08,04,09,57,17.90
2007,08,04,09,58,17.90
2007,08,04,09,59,17.90
2007,08,04,10,00,17.90
2007,08,04,10,01,17.80
2007,08,04,10,02,17.80
2007,08,04,10,03,17.80
2007,08,04,10,04,17.80
2007,08,04,10,05,17.70
2007,08,04,10,06,17.70
2007,08,04,10,07,17.70
2007,08,04,10,08,17.70
2007,08,04,10,09,17.70
2007,08,04,10,10,17.70
2007,08,04,10,11,17.80
2007,08,04,10,12,17.80
2007,08,04,10,13,17.90
2007,08,04,10,14,17.90
2007,08,04,10,15,17.90
2007,08,04,10,16,17.90
2007,08,04,10,17,17.90
2007,08,04,10,18,17.80
2007,08,04,10,19,17.80
2007,08,04,10,20,17.90
2007,08,04,10,21,17.90
2007,08,04,10,22,17.90
2007,08,04,10,23,17.90
2007,08,04,10,24,17.90
2007,08,04,10,25,17.90
2007,08,04,10,26,17.90
2007,08,04,10,27,17.90
2007,08,04,10,28,18.00
2007,08,04,10,29,18.10
2007,08,04,10,30,18.00
2007,08,04,10,31,17.90
2007,08,04,10,32,18.00
2007,08,04,10,33,18.10
2007,08,04,10,34,18.10
2007,08,04,10,35,18.10
2007,08,04,10,36,18.10
2007,08,04,10,37,18.10
2007,08,04,10,38,18.20
2007,08,04,10,39,18.20
2007,08,04,10,40,18.20
2007,08,04,10,41,18.20
2007,08,04,10,42,18.20
2007,08,04,10,43,18.30
2007,08,04,10,44,18.20
2007,08,04,10,45,18.20
2007,08,04,10,46,18.30
2007,08,04,10,47,18.40
2007,08,04,10,48,18.50
2007,08,04,10,49,18.60
2007,08,04,10,50,18.60
2007,08,04,10,51,18.60
2007,08,04,10,52,18.60
2007,08,04,10,53,18.60
2007,08,04,10,54,18.60
2007,08,04,10,55,18.60
2007,08,04,10,56,18.50
2007,08,04,10,57,18.60
2007,08,04,10,58,18.60
2007,08,04,10,59,18.50
2007,08,04,11,00,18.50
2007,08,04,11,01,18.50
2007,08,04,11,02,18.40
2007,08,04,11,03,18.40
2007,08,04,11,04,18.40
2007,08,04,11,05,18.50
2007,08,04,11,06,18.50
2007,08,04,11,07,18.50
2007,08,04,11,08,18.50
2007,08,04,11,09,18.30
2007,08,04,11,10,18.20
2007,08,04,11,11,18.20
2007,08,04,11,12,18.20
2007,08,04,11,13,18.20
2007,08,04,11,14,18.30
2007,08,04,11,15,18.40
2007,08,04,11,16,18.50
2007,08,04,11,17,18.50
2007,08,04,11,18,18.60
2007,08,04,11,19,18.60
2007,08,04,11,20,18.70
2007,08,04,11,21,18.70
2007,08,04,11,22,18.70
2007,08,04,11,23,18.70
2007,08,04,11,24,18.60
2007,08,04,11,25,18.60
2007,08,04,11,26,18.50
2007,08,04,11,27,18.50
2007,08,04,11,28,18.50
2007,08,04,11,29,18.50
2007,08,04,11,30,18.60
2007,08,04,11,31,18.60
2007,08,04,11,32,18.60
2007,08,04,11,33,18.60
2007,08,04,11,34,18.70
2007,08,04,11,35,18.80
2007,08,04,11,36,18.90
2007,08,04,11,37,18.90
2007,08,04,11,38,18.90
2007,08,04,11,39,18.90
2007,08,04,11,40,18.90
2007,08,04,11,41,18.90
2007,08,04,11,42,18.90
2007,08,04,11,43,18.90
2007,08,04,11,44,18.90
2007,08,04,11,45,19.10
2007,08,04,11,46,19.10
2007,08,04,11,47,19.10
2007,08,04,11,48,19.10
2007,08,04,11,49,19.10
2007,08,04,11,50,19.00
2007,08,04,11,51,19.00
2007,08,04,11,52,19.10
2007,08,04,11,53,19.00
2007,08,04,11,54,18.90
2007,08,04,11,55,18.90
2007,08,04,11,56,18.80
2007,08,04,11,57,18.70
2007,08,04,11,58,18.70
2007,08,04,11,59,18.70
2007,08,04,12,00,18.70
2007,08,04,12,01,18.70
2007,08,04,12,02,18.80
2007,08,04,12,03,18.90
2007,08,04,12,04,18.90
2007,08,04,12,05,18.90
2007,08,04,12,06,19.00
2007,08,04,12,07,19.10
2007,08,04,12,08,19.10
2007,08,04,12,09,19.10
2007,08,04,12,10,19.10
2007,08,04,12,11,19.10
2007,08,04,12,12,19.20
2007,08,04,12,13,19.30
2007,08,04,12,14,19.30
2007,08,04,12,15,19.30
2007,08,04,12,16,19.20
2007,08,04,12,17,19.10
2007,08,04,12,18,19.10
2007,08,04,12,19,19.10
2007,08,04,12,20,19.10
2007,08,04,12,21,19.10
2007,08,04,12,22,19.20
2007,08,04,12,23,19.30
2007,08,04,12,24,19.30
2007,08,04,12,25,19.40
2007,08,04,12,26,19.40
2007,08,04,12,27,19.50
2007,08,04,12,28,19.50
2007,08,04,12,29,19.50
2007,08,04,12,30,19.50
2007,08,04,12,31,19.40
2007,08,04,12,32,19.30
2007,08,04,12,33,19.30
2007,08,04,12,34,19.30
2007,08,04,12,35,19.40
2007,08,04,12,36,19.40
2007,08,04,12,37,19.40
2007,08,04,12,38,19.40
2007,08,04,12,39,19.60
2007,08,04,12,40,19.70
2007,08,04,12,41,19.70
2007,08,04,12,42,19.80
2007,08,04,12,43,19.80
2007,08,04,12,44,19.90
2007,08,04,12,45,19.90
2007,08,04,12,46,19.90
2007,08,04,12,47,19.90
2007,08,04,12,48,19.90
2007,08,04,12,49,19.80
2007,08,04,12,50,19.80
2007,08,04,12,51,19.70
2007,08,04,12,52,19.80
2007,08,04,12,53,19.80
2007,08,04,12,54,19.70
2007,08,04,12,55,19.70
2007,08,04,12,56,19.60
2007,08,04,12,57,19.60
2007,08,04,12,58,19.70
2007,08,04,12,59,19.70
2007,08,04,13,00,19.60
2007,08,04,13,01,19.60
2007,08,04,13,02,19.50
2007,08,04,13,03,19.40
2007,08,04,13,04,19.30
2007,08,04,13,05,19.30
2007,08,04,13,06,19.40
2007,08,04,13,07,19.50
2007,08,04,13,08,19.60
2007,08,04,13,09,19.70
2007,08,04,13,10,19.80
2007,08,04,13,11,19.80
2007,08,04,13,12,19.90
2007,08,04,13,13,19.90
2007,08,04,13,14,19.90
2007,08,04,13,15,19.90
2007,08,04,13,16,19.90
2007,08,04,13,17,19.90
2007,08,04,13,18,19.80
2007,08,04,13,19,19.80
2007,08,04,13,20,19.80
2007,08,04,13,21,19.80
2007,08,04,13,22,19.80
2007,08,04,13,23,19.90
2007,08,04,13,24,19.80
2007,08,04,13,25,19.90
2007,08,04,13,26,19.90
2007,08,04,13,27,19.90
2007,08,04,13,28,20.00
2007,08,04,13,29,20.10
2007,08,04,13,30,20.10
2007,08,04,13,31,20.10
2007,08,04,13,32,20.00
2007,08,04,13,33,20.10
2007,08,04,13,34,20.10
2007,08,04,13,35,20.10
2007,08,04,13,36,19.90
2007,08,04,13,37,19.90
2007,08,04,13,38,19.90
2007,08,04,13,39,19.90
2007,08,04,13,40,19.90
2007,08,04,13,41,20.10
2007,08,04,13,42,20.10
2007,08,04,13,43,20.10
2007,08,04,13,44,20.10
2007,08,04,13,45,20.10
2007,08,04,13,46,20.10
2007,08,04,13,47,20.20
2007,08,04,13,48,20.20
2007,08,04,13,49,20.20
2007,08,04,13,50,20.30
2007,08,04,13,51,20.30
2007,08,04,13,52,20.30
2007,08,04,13,53,20.40
2007,08,04,13,54,20.40
2007,08,04,13,55,20.40
2007,08,04,13,56,20.40
2007,08,04,13,57,20.40
2007,08,04,13,58,20.40
2007,08,04,13,59,20.50
2007,08,04,14,00,20.60
2007,08,04,14,01,20.60
2007,08,04,14,02,20.60
2007,08,04,14,03,20.50
2007,08,04,14,04,20.60
2007,08,04,14,05,20.60
2007,08,04,14,06,20.70
2007,08,04,14,07,20.80
2007,08,04,14,08,20.90
2007,08,04,14,09,21.00
2007,08,04,14,10,21.10
2007,08,04,14,11,21.20
2007,08,04,14,12,21.30
2007,08,04,14,13,21.30
2007,08,04,14,14,21.30
2007,08,04,14,15,21.30
2007,08,04,14,16,21.30
2007,08,04,14,17,21.30
2007,08,04,14,18,21.20
2007,08,04,14,19,21.10
2007,08,04,14,20,21.00
2007,08,04,14,21,21.00
2007,08,04,14,22,21.00
2007,08,04,14,23,21.10
2007,08,04,14,24,21.00
2007,08,04,14,25,20.90
2007,08,04,14,26,20.80
2007,08,04,14,27,20.70
2007,08,04,14,28,20.60
2007,08,04,14,29,20.50
2007,08,04,14,30,20.50
2007,08,04,14,31,20.60
2007,08,04,14,32,20.60
2007,08,04,14,33,20.60
2007,08,04,14,34,20.60
2007,08,04,14,35,20.70
2007,08,04,14,36,20.80
2007,08,04,14,37,20.80
2007,08,04,14,38,20.80
2007,08,04,14,39,20.90
2007,08,04,14,40,20.90
2007,08,04,14,41,21.00
2007,08,04,14,42,21.00
2007,08,04,14,43,21.10
2007,08,04,14,44,21.20
2007,08,04,14,45,21.30
2007,08,04,14,46,21.30
2007,08,04,14,47,21.30
2007,08,04,14,48,21.30
2007,08,04,14,49,21.20
2007,08,04,14,50,21.20
2007,08,04,14,51,21.20
2007,08,04,14,52,21.20
2007,08,04,14,53,21.30
2007,08,04,14,54,21.20
2007,08,04,14,55,21.30
2007,08,04,14,56,21.30
2007,08,04,14,57,21.30
2007,08,04,14,58,21.30
2007,08,04,14,59,21.30
2007,08,04,15,00,21.30
2007,08,04,15,01,21.30
2007,08,04,15,02,21.30
2007,08,04,15,03,21.10
2007,08,04,15,04,21.00
2007,08,04,15,05,21.00
2007,08,04,15,06,21.00
2007,08,04,15,07,21.10
2007,08,04,15,08,21.20
2007,08,04,15,09,21.20
2007,08,04,15,10,21.10
2007,08,04,15,11,21.10
2007,08,04,15,12,21.10
2007,08,04,15,13,21.10
2007,08,04,15,14,20.90
2007,08,04,15,15,20.90
2007,08,04,15,16,20.90
2007,08,04,15,17,21.00
2007,08,04,15,18,21.00
2007,08,04,15,19,21.10
2007,08,04,15,20,21.10
2007,08,04,15,21,21.20
2007,08,04,15,22,21.20
2007,08,04,15,23,21.20
2007,08,04,15,24,21.20
2007,08,04,15,25,21.30
2007,08,04,15,26,21.30
2007,08,04,15,27,21.40
2007,08,04,15,28,21.40
2007,08,04,15,29,21.50
2007,08,04,15,30,21.60
2007,08,04,15,31,21.60
2007,08,04,15,32,21.60
2007,08,04,15,33,21.60
2007,08,04,15,34,21.70
2007,08,04,15,35,21.90
2007,08,04,15,36,22.00
2007,08,04,15,37,22.00
2007,08,04,15,38,22.20
2007,08,04,15,39,22.20
2007,08,04,15,40,22.10
2007,08,04,15,41,22.10
2007,08,04,15,42,22.00
2007,08,04,15,43,22.00
2007,08,04,15,44,22.10
2007,08,04,15,45,22.20
2007,08,04,15,46,22.10
2007,08,04,15,47,22.10
2007,08,04,15,48,22.00
2007,08,04,15,49,21.90
2007,08,04,15,50,21.80
2007,08,04,15,51,21.80
2007,08,04,15,52,21.90
2007,08,04,15,53,22.00
2007,08,04,15,54,22.00
2007,08,04,15,55,22.00
2007,08,04,15,56,22.10
2007,08,04,15,57,22.10
2007,08,04,15,58,22.10
2007,08,04,15,59,22.10
2007,08,04,16,00,22.00
2007,08,04,16,01,22.00
2007,08,04,16,02,22.00
2007,08,04,16,03,22.00
2007,08,04,16,04,22.00
2007,08,04,16,05,22.00
2007,08,04,16,06,22.10
2007,08,04,16,07,22.20
2007,08,04,16,08,22.20
2007,08,04,16,09,22.30
2007,08,04,16,10,22.30
2007,08,04,16,11,22.30
2007,08,04,16,12,22.30
2007,08,04,16,13,22.20
2007,08,04,16,14,22.20
2007,08,04,16,15,22.30
2007,08,04,16,16,22.30
2007,08,04,16,17,22.40
2007,08,04,16,18,22.40
2007,08,04,16,19,22.40
2007,08,04,16,20,22.40
2007,08,04,16,21,22.50
2007,08,04,16,22,22.50
2007,08,04,16,23,22.50
2007,08,04,16,24,22.40
2007,08,04,16,25,22.40
2007,08,04,16,26,22.40
2007,08,04,16,27,22.30
2007,08,04,16,28,22.30
2007,08,04,16,29,22.30
2007,08,04,16,30,22.30
2007,08,04,16,31,22.30
2007,08,04,16,32,22.30
2007,08,04,16,33,22.30
2007,08,04,16,34,22.30
2007,08,04,16,35,22.30
2007,08,04,16,36,22.30
2007,08,04,16,37,22.30
2007,08,04,16,38,22.40
2007,08,04,16,39,22.40
2007,08,04,16,40,22.50
2007,08,04,16,41,22.50
2007,08,04,16,42,22.40
2007,08,04,16,43,22.40
2007,08,04,16,44,22.40
2007,08,04,16,45,22.50
2007,08,04,16,46,22.50
2007,08,04,16,47,22.50
2007,08,04,16,48,22.60
2007,08,04,16,49,22.60
2007,08,04,16,50,22.60
2007,08,04,16,51,22.60
2007,08,04,16,52,22.60
2007,08,04,16,53,22.60
2007,08,04,16,54,22.50
2007,08,04,16,55,22.50
2007,08,04,16,56,22.40
2007,08,04,16,57,22.40
2007,08,04,16,58,22.40
2007,08,04,16,59,22.40
2007,08,04,17,00,22.50
2007,08,04,17,01,22.50
2007,08,04,17,02,22.40
2007,08,04,17,03,22.30
2007,08,04,17,04,22.20
2007,08,04,17,05,22.20
2007,08,04,17,06,22.10
2007,08,04,17,07,22.20
2007,08,04,17,08,22.20
2007,08,04,17,09,22.30
2007,08,04,17,10,22.50
2007,08,04,17,11,22.50
2007,08,04,17,12,22.60
2007,08,04,17,13,22.70
2007,08,04,17,14,22.70
2007,08,04,17,15,22.60
2007,08,04,17,16,22.50
2007,08,04,17,17,22.40
2007,08,04,17,18,22.40
2007,08,04,17,19,22.50